| time (UTC) | temp F | wind direction | speed MPH | gust MPH | rain 1hr in | rain 24hr in | rain mn in | humidity % | barometer mb |
| 20260505230015 | 81 | 72 | 2.0 | 7.0 | 0.00 | 0.00 | 0.00 | 78 | 1007.4 |
| 20260505225507 | 81 | 233 | 2.0 | 8.0 | 0.00 | 0.00 | 0.00 | 78 | 1007.4 |
| 20260505225004 | 81 | 219 | 2.0 | 8.0 | 0.00 | 0.00 | 0.00 | 78 | 1007.4 |
| 20260505224520 | 81 | 335 | 2.0 | 7.0 | 0.00 | 0.00 | 0.00 | 78 | 1007.5 |
| 20260505224007 | 81 | 231 | 2.0 | 11.0 | 0.00 | 0.00 | 0.00 | 77 | 1007.5 |
| 20260505223509 | 81 | 311 | 2.0 | 11.0 | 0.00 | 0.00 | 0.00 | 77 | 1007.5 |
| 20260505223010 | 82 | 158 | 2.0 | 7.0 | 0.00 | 0.00 | 0.00 | 77 | 1007.4 |
| 20260505222503 | 82 | 140 | 1.0 | 7.0 | 0.00 | 0.00 | 0.00 | 78 | 1007.6 |
| 20260505222007 | 82 | 231 | 2.0 | 7.0 | 0.00 | 0.00 | 0.00 | 77 | 1007.5 |
| 20260505221505 | 82 | 128 | 2.0 | 7.0 | 0.00 | 0.00 | 0.00 | 77 | 1007.6 |
| 20260505221004 | 82 | 192 | 1.0 | 9.0 | 0.00 | 0.00 | 0.00 | 76 | 1007.7 |
| 20260505220505 | 83 | 184 | 1.0 | 9.0 | 0.00 | 0.00 | 0.00 | 76 | 1007.7 |
| 20260505220022 | 83 | 148 | 0.0 | 8.0 | 0.00 | 0.00 | 0.00 | 76 | 1007.7 |
| 20260505215509 | 82 | 242 | 3.0 | 8.0 | 0.00 | 0.00 | 0.00 | 75 | 1007.7 |
| 20260505215004 | 82 | 226 | 2.0 | 8.0 | 0.00 | 0.00 | 0.00 | 76 | 1007.6 |
| 20260505214525 | 82 | 143 | 2.0 | 8.0 | 0.00 | 0.00 | 0.00 | 76 | 1007.8 |
| 20260505214005 | 82 | 97 | 1.0 | 7.0 | 0.00 | 0.00 | 0.00 | 76 | 1007.8 |
| 20260505213507 | 83 | 302 | 1.0 | 6.0 | 0.00 | 0.00 | 0.00 | 76 | 1008.0 |
| 20260505213023 | 82 | 131 | 1.0 | 6.0 | 0.00 | 0.00 | 0.00 | 76 | 1008.0 |
| 20260505212508 | 82 | 113 | 1.0 | 7.0 | 0.00 | 0.00 | 0.00 | 76 | 1008.1 |
| 20260505212014 | 82 | 188 | 1.0 | 7.0 | 0.00 | 0.00 | 0.00 | 76 | 1008.0 |
| 20260505211505 | 82 | 236 | 1.0 | 7.0 | 0.00 | 0.00 | 0.00 | 76 | 1008.2 |
| 20260505211002 | 82 | 257 | 2.0 | 7.0 | 0.00 | 0.00 | 0.00 | 74 | 1008.2 |
| 20260505210503 | 83 | 235 | 3.0 | 7.0 | 0.00 | 0.00 | 0.00 | 74 | 1008.2 |
| 20260505210008 | 83 | 174 | 2.0 | 7.0 | 0.00 | 0.00 | 0.00 | 74 | 1008.4 |
| 20260505205507 | 83 | 155 | 2.0 | 5.0 | 0.00 | 0.00 | 0.00 | 73 | 1008.5 |
| 20260505205004 | 83 | 256 | 0.0 | 6.0 | 0.00 | 0.00 | 0.00 | 74 | 1008.6 |
| 20260505204510 | 83 | 195 | 1.0 | 6.0 | 0.00 | 0.00 | 0.00 | 73 | 1008.6 |
| 20260505204007 | 83 | 151 | 1.0 | 5.0 | 0.00 | 0.00 | 0.00 | 74 | 1008.8 |
| 20260505203507 | 84 | 273 | 1.0 | 6.0 | 0.00 | 0.00 | 0.00 | 74 | 1008.8 |
| 20260505203016 | 83 | 245 | 1.0 | 6.0 | 0.00 | 0.00 | 0.00 | 74 | 1008.8 |
| 20260505202508 | 84 | 229 | 1.0 | 6.0 | 0.00 | 0.00 | 0.00 | 74 | 1008.9 |
| 20260505202008 | 84 | 249 | 2.0 | 7.0 | 0.00 | 0.00 | 0.00 | 74 | 1009.0 |
| 20260505201522 | 83 | 191 | 1.0 | 7.0 | 0.00 | 0.00 | 0.00 | 75 | 1009.0 |
| 20260505201010 | 83 | 169 | 2.0 | 7.0 | 0.00 | 0.00 | 0.00 | 75 | 1009.0 |
| 20260505200510 | 83 | 95 | 3.0 | 7.0 | 0.00 | 0.00 | 0.00 | 75 | 1009.1 |
| 20260505200005 | 83 | 210 | 1.0 | 5.0 | 0.00 | 0.00 | 0.00 | 75 | 1009.1 |
| 20260505195504 | 83 | 214 | 0.0 | 5.0 | 0.00 | 0.00 | 0.00 | 77 | 1009.0 |
| 20260505195004 | 82 | 93 | 1.0 | 5.0 | 0.00 | 0.00 | 0.00 | 77 | 1009.2 |
| 20260505194518 | 82 | 285 | 0.0 | 5.0 | 0.00 | 0.00 | 0.00 | 76 | 1009.2 |
| 20260505194014 | 82 | 235 | 1.0 | 5.0 | 0.00 | 0.00 | 0.00 | 75 | 1009.2 |
| 20260505193504 | 83 | 260 | 0.0 | 5.0 | 0.00 | 0.00 | 0.00 | 75 | 1009.3 |
| 20260505193015 | 83 | 157 | 1.0 | 5.0 | 0.00 | 0.00 | 0.00 | 75 | 1009.4 |
| 20260505192508 | 83 | 267 | 1.0 | 5.0 | 0.00 | 0.00 | 0.00 | 76 | 1009.3 |
| 20260505192007 | 83 | 251 | 1.0 | 5.0 | 0.00 | 0.00 | 0.00 | 75 | 1009.4 |
| 20260505191522 | 83 | 155 | 0.0 | 6.0 | 0.00 | 0.00 | 0.00 | 76 | 1009.4 |
| 20260505191007 | 83 | 156 | 2.0 | 6.0 | 0.00 | 0.00 | 0.00 | 75 | 1009.4 |
| 20260505190506 | 83 | 219 | 1.0 | 4.0 | 0.00 | 0.00 | 0.00 | 77 | 1009.4 |
| 20260505190020 | 82 | 237 | 1.0 | 6.0 | 0.00 | 0.00 | 0.00 | 76 | 1009.5 |
| 20260505185509 | 82 | 136 | 1.0 | 6.0 | 0.00 | 0.00 | 0.00 | 77 | 1009.5 |
| 20260505185012 | 82 | 103 | 0.0 | 6.0 | 0.00 | 0.00 | 0.00 | 78 | 1009.5 |
| 20260505184508 | 82 | 231 | 0.0 | 6.0 | 0.00 | 0.00 | 0.00 | 78 | 1009.5 |
| 20260505184004 | 82 | 152 | 1.0 | 5.0 | 0.00 | 0.00 | 0.00 | 78 | 1009.6 |
| 20260505183506 | 81 | 171 | 0.0 | 5.0 | 0.00 | 0.00 | 0.00 | 78 | 1009.6 |
| 20260505183016 | 81 | 231 | 1.0 | 5.0 | 0.00 | 0.00 | 0.00 | 78 | 1009.6 |
| 20260505182504 | 81 | 151 | 0.0 | 5.0 | 0.00 | 0.00 | 0.00 | 79 | 1009.6 |
| 20260505182008 | 81 | 156 | 2.0 | 5.0 | 0.00 | 0.00 | 0.00 | 78 | 1009.8 |
| 20260505181516 | 81 | 143 | 0.0 | 8.0 | 0.00 | 0.00 | 0.00 | 78 | 1009.8 |
| 20260505181010 | 81 | 104 | 3.0 | 8.0 | 0.00 | 0.00 | 0.00 | 78 | 1009.8 |
| 20260505180506 | 81 | 16 | 2.0 | 7.0 | 0.00 | 0.00 | 0.00 | 77 | 1009.8 |
| 20260505180024 | 81 | 226 | 2.0 | 5.0 | 0.00 | 0.00 | 0.00 | 77 | 1009.9 |
| 20260505175508 | 81 | 227 | 0.0 | 5.0 | 0.00 | 0.00 | 0.00 | 77 | 1009.9 |
| 20260505175007 | 81 | 193 | 0.0 | 5.0 | 0.00 | 0.00 | 0.00 | 79 | 1009.9 |
| 20260505174524 | 81 | 186 | 1.0 | 6.0 | 0.00 | 0.00 | 0.00 | 78 | 1009.9 |
| 20260505174008 | 81 | 161 | 1.0 | 6.0 | 0.00 | 0.00 | 0.00 | 79 | 1009.9 |
| 20260505173511 | 80 | 136 | 0.0 | 5.0 | 0.00 | 0.00 | 0.00 | 80 | 1009.9 |
| 20260505173027 | 80 | 105 | 2.0 | 5.0 | 0.00 | 0.00 | 0.00 | 79 | 1010.0 |
| 20260505172507 | 80 | 226 | 0.0 | 5.0 | 0.00 | 0.00 | 0.00 | 81 | 1010.0 |
| 20260505172004 | 79 | 166 | 1.0 | 5.0 | 0.00 | 0.00 | 0.00 | 81 | 1010.0 |
| 20260505171514 | 79 | 161 | 0.0 | 7.0 | 0.00 | 0.00 | 0.00 | 80 | 1010.0 |
| 20260505171008 | 80 | 191 | 2.0 | 7.0 | 0.00 | 0.00 | 0.00 | 80 | 1010.1 |
| 20260505170506 | 80 | 234 | 1.0 | 6.0 | 0.00 | 0.00 | 0.00 | 80 | 1010.1 |
| 20260505170015 | 80 | 263 | 0.0 | 10.0 | 0.00 | 0.00 | 0.00 | 80 | 1010.1 |
| 20260505165505 | 80 | 194 | 1.0 | 10.0 | 0.00 | 0.00 | 0.00 | 80 | 1010.1 |
| 20260505165007 | 80 | 188 | 2.0 | 8.0 | 0.00 | 0.00 | 0.00 | 79 | 1010.1 |
| 20260505164522 | 80 | 247 | 1.0 | 6.0 | 0.00 | 0.00 | 0.00 | 81 | 1010.0 |
| 20260505164011 | 79 | 272 | 0.0 | 6.0 | 0.00 | 0.00 | 0.00 | 80 | 1010.0 |
| 20260505163508 | 79 | 229 | 1.0 | 5.0 | 0.00 | 0.00 | 0.00 | 81 | 1009.9 |
| 20260505163024 | 79 | 252 | 0.0 | 5.0 | 0.00 | 0.00 | 0.00 | 81 | 1009.9 |
| 20260505162507 | 79 | 111 | 0.0 | 5.0 | 0.00 | 0.00 | 0.00 | 82 | 1010.0 |
| 20260505162011 | 79 | 258 | 1.0 | 5.0 | 0.00 | 0.00 | 0.00 | 82 | 1009.9 |
| 20260505161528 | 79 | 186 | 0.0 | 5.0 | 0.00 | 0.00 | 0.00 | 82 | 1010.0 |
| 20260505161004 | 79 | 248 | 1.0 | 5.0 | 0.00 | 0.00 | 0.00 | 82 | 1010.0 |
| 20260505160504 | 78 | 28 | 0.0 | 6.0 | 0.00 | 0.00 | 0.00 | 82 | 1010.0 |
| 20260505153024 | 78 | 94 | 0.0 | 5.0 | 0.00 | 0.00 | 0.00 | 83 | 1009.8 |
| 20260505152513 | 78 | 120 | 1.0 | 5.0 | 0.00 | 0.00 | 0.00 | 82 | 1009.7 |
| 20260505152011 | 78 | 289 | 0.0 | 6.0 | 0.00 | 0.00 | 0.00 | 82 | 1009.7 |
| 20260505151526 | 78 | 274 | 0.0 | 6.0 | 0.00 | 0.00 | 0.00 | 83 | 1009.7 |
| 20260505151013 | 78 | 214 | 2.0 | 5.0 | 0.00 | 0.00 | 0.00 | 83 | 1009.7 |
| 20260505150515 | 78 | 240 | 1.0 | 7.0 | 0.00 | 0.00 | 0.00 | 83 | 1009.7 |
| 20260505140507 | 76 | 185 | 0.0 | 3.0 | 0.00 | 0.00 | 0.00 | 87 | 1009.7 |
| 20260505125008 | 73 | 176 | 0.0 | 3.0 | 0.00 | 0.00 | 0.00 | 89 | 1009.5 |
| 20260505124536 | 73 | 172 | 0.0 | 1.0 | 0.00 | 0.00 | 0.00 | 90 | 1009.4 |
| 20260505124011 | 73 | 172 | 0.0 | 3.0 | 0.00 | 0.00 | 0.00 | 90 | 1009.4 |
| 20260505123508 | 72 | 195 | 1.0 | 3.0 | 0.00 | 0.00 | 0.00 | 90 | 1009.4 |
| 20260505123011 | 72 | 213 | 0.0 | 3.0 | 0.00 | 0.00 | 0.00 | 90 | 1009.2 |
| 20260505122504 | 72 | 134 | 0.0 | 3.0 | 0.00 | 0.00 | 0.00 | 90 | 1009.1 |
| 20260505122005 | 72 | 157 | 0.0 | 3.0 | 0.00 | 0.00 | 0.00 | 90 | 1009.1 |
| 20260505121509 | 72 | 165 | 0.0 | 5.0 | 0.00 | 0.00 | 0.00 | 90 | 1008.9 |
| 20260505121003 | 72 | 151 | 0.0 | 5.0 | 0.00 | 0.00 | 0.00 | 90 | 1008.8 |
| 20260505120502 | 72 | 209 | 1.0 | 2.0 | 0.00 | 0.00 | 0.00 | 90 | 1008.8 |
| 20260505120006 | 72 | 160 | 0.0 | 1.0 | 0.00 | 0.00 | 0.00 | 90 | 1008.9 |
| 20260505115502 | 72 | 259 | 0.0 | 1.0 | 0.00 | 0.00 | 0.00 | 90 | 1009.2 |
| 20260505115002 | 72 | 176 | 0.0 | 1.0 | 0.00 | 0.00 | 0.00 | 90 | 1009.3 |
| 20260505114508 | 72 | 150 | 0.0 | 2.0 | 0.00 | 0.00 | 0.00 | 90 | 1009.3 |
| 20260505114004 | 72 | 243 | 0.0 | 3.0 | 0.00 | 0.00 | 0.00 | 90 | 1009.1 |
| 20260505113503 | 72 | 268 | 0.0 | 3.0 | 0.00 | 0.00 | 0.00 | 90 | 1009.0 |
| 20260505113010 | 72 | 274 | 0.0 | 2.0 | 0.00 | 0.00 | 0.00 | 90 | 1009.0 |
| 20260505112504 | 72 | 219 | 0.0 | 2.0 | 0.00 | 0.00 | 0.00 | 90 | 1008.9 |
| 20260505112005 | 72 | 169 | 0.0 | 3.0 | 0.00 | 0.00 | 0.00 | 90 | 1008.9 |
| 20260505111510 | 72 | 217 | 0.0 | 3.0 | 0.00 | 0.00 | 0.00 | 90 | 1008.7 |
| 20260505111008 | 72 | 195 | 0.0 | 1.0 | 0.00 | 0.00 | 0.00 | 90 | 1009.0 |
| 20260505110505 | 72 | 186 | 0.0 | 3.0 | 0.00 | 0.00 | 0.00 | 90 | 1009.0 |
| 20260505102003 | 72 | 150 | 0.0 | 1.0 | 0.00 | 0.00 | 0.00 | 89 | 1008.9 |
| 20260505101509 | 72 | 226 | 0.0 | 3.0 | 0.00 | 0.00 | 0.00 | 89 | 1009.0 |
| 20260505101004 | 72 | 221 | 0.0 | 4.0 | 0.00 | 0.00 | 0.00 | 89 | 1009.2 |
| 20260505100505 | 71 | 193 | 0.0 | 4.0 | 0.00 | 0.00 | 0.00 | 89 | 1009.2 |
| 20260505100010 | 71 | 210 | 0.0 | 2.0 | 0.00 | 0.00 | 0.00 | 89 | 1009.2 |
| 20260505095505 | 71 | 177 | 0.0 | 3.0 | 0.00 | 0.00 | 0.00 | 89 | 1009.1 |
| 20260505095005 | 71 | 216 | 0.0 | 4.0 | 0.00 | 0.00 | 0.00 | 89 | 1009.0 |
| 20260505094513 | 71 | 221 | 0.0 | 4.0 | 0.00 | 0.00 | 0.00 | 89 | 1008.9 |
| 20260505094006 | 71 | 209 | 0.0 | 3.0 | 0.00 | 0.00 | 0.00 | 89 | 1008.9 |
| 20260505093504 | 71 | 137 | 0.0 | 3.0 | 0.00 | 0.00 | 0.00 | 89 | 1009.1 |
| 20260505093008 | 71 | 158 | 0.0 | 3.0 | 0.00 | 0.00 | 0.00 | 89 | 1009.2 |
| 20260505092504 | 71 | 205 | 0.0 | 2.0 | 0.00 | 0.00 | 0.00 | 89 | 1009.3 |
| 20260505092005 | 71 | 179 | 0.0 | 2.0 | 0.00 | 0.00 | 0.00 | 89 | 1009.4 |
| 20260505091514 | 71 | 155 | 0.0 | 2.0 | 0.00 | 0.00 | 0.00 | 89 | 1009.4 |
| 20260505091004 | 71 | 130 | 0.0 | 3.0 | 0.00 | 0.00 | 0.00 | 89 | 1009.4 |
| 20260505090504 | 71 | 258 | 0.0 | 3.0 | 0.00 | 0.00 | 0.00 | 88 | 1009.3 |
| 20260505090013 | 71 | 200 | 0.0 | 3.0 | 0.00 | 0.00 | 0.00 | 88 | 1009.3 |
| 20260505085509 | 71 | 150 | 0.0 | 3.0 | 0.00 | 0.00 | 0.00 | 88 | 1009.4 |
| 20260505085007 | 71 | 139 | 0.0 | 3.0 | 0.00 | 0.00 | 0.00 | 88 | 1009.4 |
| 20260505084533 | 71 | 150 | 0.0 | 3.0 | 0.00 | 0.00 | 0.00 | 89 | 1009.4 |
| 20260505084005 | 71 | 245 | 0.0 | 3.0 | 0.00 | 0.00 | 0.00 | 89 | 1009.4 |
| 20260505083507 | 71 | 162 | 0.0 | 1.0 | 0.00 | 0.00 | 0.00 | 89 | 1009.4 |
| 20260505083011 | 71 | 231 | 0.0 | 5.0 | 0.00 | 0.00 | 0.00 | 89 | 1009.3 |
| 20260505082506 | 70 | 207 | 0.0 | 5.0 | 0.00 | 0.00 | 0.00 | 89 | 1009.4 |
| 20260505082004 | 70 | 186 | 0.0 | 3.0 | 0.00 | 0.00 | 0.00 | 89 | 1009.4 |
| 20260505081517 | 70 | 183 | 0.0 | 3.0 | 0.00 | 0.00 | 0.00 | 89 | 1009.5 |
| 20260505081004 | 70 | 182 | 0.0 | 3.0 | 0.00 | 0.00 | 0.00 | 89 | 1009.5 |
| 20260505080503 | 70 | 155 | 0.0 | 3.0 | 0.00 | 0.00 | 0.00 | 89 | 1009.6 |
| 20260505080014 | 70 | 203 | 0.0 | 2.0 | 0.00 | 0.00 | 0.00 | 89 | 1009.6 |
| 20260505075505 | 70 | 155 | 0.0 | 2.0 | 0.00 | 0.00 | 0.00 | 88 | 1009.6 |
| 20260505075007 | 70 | 212 | 0.0 | 2.0 | 0.00 | 0.00 | 0.00 | 88 | 1009.8 |
| 20260505074514 | 70 | 174 | 0.0 | 3.0 | 0.00 | 0.00 | 0.00 | 88 | 1009.8 |
| 20260505074005 | 70 | 271 | 0.0 | 4.0 | 0.00 | 0.00 | 0.00 | 88 | 1009.7 |
| 20260505073505 | 70 | 127 | 1.0 | 4.0 | 0.00 | 0.00 | 0.00 | 88 | 1009.7 |
| 20260505073016 | 70 | 193 | 0.0 | 3.0 | 0.00 | 0.00 | 0.00 | 88 | 1009.8 |
| 20260505072506 | 70 | 244 | 0.0 | 3.0 | 0.00 | 0.00 | 0.00 | 87 | 1009.8 |
| 20260505072008 | 70 | 250 | 0.0 | 3.0 | 0.00 | 0.00 | 0.00 | 87 | 1009.9 |
| 20260505071519 | 70 | 189 | 1.0 | 3.0 | 0.00 | 0.00 | 0.00 | 87 | 1010.0 |
| 20260505071007 | 70 | 258 | 0.0 | 3.0 | 0.00 | 0.00 | 0.00 | 87 | 1010.2 |
| 20260505070505 | 70 | 205 | 0.0 | 3.0 | 0.00 | 0.00 | 0.00 | 87 | 1010.2 |
| 20260505070012 | 70 | 271 | 0.0 | 2.0 | 0.00 | 0.00 | 0.00 | 87 | 1010.2 |
| 20260505065504 | 70 | 264 | 0.0 | 3.0 | 0.00 | 0.00 | 0.00 | 87 | 1010.3 |
| 20260505065004 | 70 | 143 | 0.0 | 3.0 | 0.00 | 0.00 | 0.00 | 87 | 1010.3 |
| 20260505064519 | 70 | 165 | 0.0 | 1.0 | 0.00 | 0.00 | 0.00 | 87 | 1010.5 |
| 20260505064009 | 70 | 92 | 0.0 | 3.0 | 0.00 | 0.00 | 0.00 | 87 | 1010.6 |
| 20260505063505 | 70 | 137 | 1.0 | 3.0 | 0.00 | 0.00 | 0.00 | 86 | 1010.7 |
| 20260505063017 | 70 | 269 | 0.0 | 2.0 | 0.00 | 0.00 | 0.00 | 86 | 1010.7 |
| 20260505062508 | 70 | 127 | 0.0 | 2.0 | 0.00 | 0.00 | 0.00 | 86 | 1010.7 |
| 20260505062005 | 70 | 216 | 0.0 | 2.0 | 0.00 | 0.00 | 0.00 | 86 | 1010.9 |
| 20260505061520 | 70 | 94 | 0.0 | 2.0 | 0.00 | 0.00 | 0.00 | 86 | 1011.0 |
| 20260505061007 | 70 | 313 | 0.0 | 3.0 | 0.00 | 0.00 | 0.00 | 86 | 1010.9 |
| 20260505060507 | 70 | 217 | 0.0 | 3.0 | 0.00 | 0.00 | 0.00 | 85 | 1010.9 |
| 20260505060017 | 70 | 174 | 0.0 | 3.0 | 0.00 | 0.00 | 0.00 | 85 | 1010.9 |
| 20260505055509 | 70 | 217 | 0.0 | 3.0 | 0.00 | 0.00 | 0.00 | 85 | 1010.8 |
| 20260505055005 | 70 | 176 | 0.0 | 3.0 | 0.00 | 0.00 | 0.00 | 85 | 1010.8 |
| 20260505054512 | 70 | 166 | 0.0 | 3.0 | 0.00 | 0.00 | 0.00 | 85 | 1010.9 |
| 20260505054011 | 70 | 135 | 1.0 | 3.0 | 0.00 | 0.00 | 0.00 | 84 | 1011.0 |
| 20260505053504 | 70 | 99 | 0.0 | 2.0 | 0.00 | 0.00 | 0.00 | 84 | 1011.2 |
| 20260505053021 | 70 | 251 | 0.0 | 2.0 | 0.00 | 0.00 | 0.00 | 84 | 1011.3 |
| 20260505052510 | 70 | 225 | 0.0 | 4.0 | 0.00 | 0.00 | 0.00 | 84 | 1011.3 |
| 20260505052005 | 70 | 163 | 0.0 | 4.0 | 0.00 | 0.00 | 0.00 | 84 | 1011.4 |
| 20260505051520 | 70 | 185 | 0.0 | 4.0 | 0.00 | 0.00 | 0.00 | 84 | 1011.2 |
| 20260505051006 | 70 | 117 | 0.0 | 3.0 | 0.00 | 0.00 | 0.00 | 84 | 1011.2 |
| 20260505050506 | 70 | 223 | 0.0 | 5.0 | 0.00 | 0.00 | 0.00 | 83 | 1011.1 |
| 20260505041507 | 71 | 203 | 0.0 | 2.0 | 0.00 | 0.00 | 0.00 | 82 | 1011.7 |
| 20260505041002 | 71 | 148 | 0.0 | 0.0 | 0.00 | 0.00 | 0.00 | 81 | 1011.6 |
| 20260505040505 | 71 | 196 | 0.0 | 0.0 | 0.00 | 0.00 | 0.00 | 81 | 1011.5 |
| 20260505040005 | 71 | 176 | 0.0 | 1.0 | 0.00 | 0.00 | 0.00 | 81 | 1011.5 |
| 20260505035506 | 71 | 173 | 0.0 | 1.0 | 0.00 | 0.00 | 0.00 | 80 | 1011.6 |
| 20260505035004 | 71 | 237 | 0.0 | 2.0 | 0.00 | 0.00 | 0.00 | 80 | 1011.7 |
| 20260505034508 | 71 | 146 | 0.0 | 2.0 | 0.00 | 0.00 | 0.00 | 80 | 1011.8 |
| 20260505034008 | 71 | 271 | 0.0 | 4.0 | 0.00 | 0.00 | 0.00 | 80 | 1011.8 |
| 20260505033507 | 71 | 198 | 0.0 | 4.0 | 0.00 | 0.00 | 0.00 | 79 | 1011.8 |
| 20260505033014 | 71 | 163 | 0.0 | 4.0 | 0.00 | 0.00 | 0.00 | 79 | 1011.9 |
| 20260505032504 | 72 | 217 | 0.0 | 2.0 | 0.00 | 0.00 | 0.00 | 79 | 1011.7 |
| 20260505032003 | 72 | 173 | 0.0 | 3.0 | 0.00 | 0.00 | 0.00 | 78 | 1011.8 |
| 20260505031520 | 72 | 157 | 0.0 | 3.0 | 0.00 | 0.00 | 0.00 | 78 | 1011.9 |
| 20260505031004 | 72 | 153 | 0.0 | 4.0 | 0.00 | 0.00 | 0.00 | 78 | 1011.9 |
| 20260505030505 | 72 | 242 | 0.0 | 4.0 | 0.00 | 0.00 | 0.00 | 77 | 1011.8 |
| 20260505030004 | 72 | 158 | 0.0 | 6.0 | 0.00 | 0.00 | 0.00 | 77 | 1011.9 |
| 20260505025506 | 73 | 266 | 2.0 | 6.0 | 0.00 | 0.00 | 0.00 | 76 | 1011.8 |
| 20260505025004 | 73 | 221 | 0.0 | 6.0 | 0.00 | 0.00 | 0.00 | 76 | 1011.7 |
| 20260505024504 | 73 | 241 | 0.0 | 6.0 | 0.00 | 0.00 | 0.00 | 76 | 1011.7 |
| 20260505024004 | 73 | 217 | 2.0 | 6.0 | 0.00 | 0.00 | 0.00 | 76 | 1011.6 |
| 20260505023504 | 73 | 207 | 1.0 | 5.0 | 0.00 | 0.00 | 0.00 | 76 | 1011.7 |
| 20260505023009 | 73 | 219 | 1.0 | 4.0 | 0.00 | 0.00 | 0.00 | 76 | 1011.6 |
| 20260505022503 | 73 | 195 | 1.0 | 5.0 | 0.00 | 0.00 | 0.00 | 75 | 1011.5 |
| 20260505022004 | 73 | 306 | 0.0 | 8.0 | 0.00 | 0.00 | 0.00 | 75 | 1011.6 |
| 20260505021516 | 73 | 227 | 2.0 | 8.0 | 0.00 | 0.00 | 0.00 | 75 | 1011.5 |
| 20260505021003 | 73 | 195 | 1.0 | 5.0 | 0.00 | 0.00 | 0.00 | 75 | 1011.5 |
| 20260505020504 | 73 | 142 | 0.0 | 5.0 | 0.00 | 0.00 | 0.00 | 75 | 1011.4 |
| 20260505020022 | 73 | 171 | 0.0 | 5.0 | 0.00 | 0.00 | 0.00 | 75 | 1011.4 |
| 20260505015509 | 73 | 94 | 1.0 | 4.0 | 0.00 | 0.00 | 0.00 | 76 | 1011.4 |
| 20260505015006 | 73 | 155 | 0.0 | 4.0 | 0.00 | 0.00 | 0.00 | 76 | 1011.3 |
| 20260505014504 | 73 | 245 | 0.0 | 4.0 | 0.00 | 0.00 | 0.00 | 76 | 1011.2 |
| 20260505014004 | 73 | 152 | 1.0 | 6.0 | 0.00 | 0.00 | 0.00 | 76 | 1011.2 |
| 20260505013503 | 73 | 238 | 1.0 | 6.0 | 0.00 | 0.00 | 0.00 | 75 | 1011.1 |
| 20260505013008 | 73 | 204 | 0.0 | 3.0 | 0.00 | 0.00 | 0.00 | 75 | 1011.2 |
| 20260505012505 | 73 | 255 | 0.0 | 4.0 | 0.00 | 0.00 | 0.00 | 75 | 1011.3 |
| 20260505012005 | 73 | 198 | 1.0 | 4.0 | 0.00 | 0.00 | 0.00 | 74 | 1011.2 |
| 20260505011513 | 74 | 216 | 1.0 | 6.0 | 0.00 | 0.00 | 0.00 | 74 | 1011.2 |
| 20260505011004 | 74 | 178 | 1.0 | 6.0 | 0.00 | 0.00 | 0.00 | 73 | 1011.3 |
| 20260505010504 | 74 | 282 | 2.0 | 6.0 | 0.00 | 0.00 | 0.00 | 73 | 1011.2 |
| 20260505010018 | 74 | 117 | 1.0 | 4.0 | 0.00 | 0.00 | 0.00 | 73 | 1011.1 |
| 20260505005505 | 74 | 250 | 0.0 | 9.0 | 0.00 | 0.00 | 0.00 | 72 | 1011.0 |
| 20260505005009 | 75 | 169 | 1.0 | 9.0 | 0.00 | 0.00 | 0.00 | 72 | 1011.0 |
| 20260505004520 | 75 | 156 | 2.0 | 7.0 | 0.00 | 0.00 | 0.00 | 71 | 1011.0 |
| 20260505004007 | 75 | 139 | 3.0 | 6.0 | 0.00 | 0.00 | 0.00 | 71 | 1010.9 |
| 20260505003509 | 75 | 161 | 0.0 | 6.0 | 0.00 | 0.00 | 0.00 | 70 | 1011.0 |
| 20260505003025 | 76 | 153 | 2.0 | 6.0 | 0.00 | 0.00 | 0.00 | 70 | 1011.0 |
| 20260505002504 | 76 | 129 | 0.0 | 7.0 | 0.00 | 0.00 | 0.00 | 69 | 1011.0 |
| 20260505002007 | 76 | 194 | 2.0 | 7.0 | 0.00 | 0.00 | 0.00 | 68 | 1010.9 |
| 20260505001509 | 77 | 220 | 1.0 | 7.0 | 0.00 | 0.00 | 0.00 | 68 | 1010.9 |
| 20260505001007 | 77 | 70 | 3.0 | 7.0 | 0.00 | 0.00 | 0.00 | 67 | 1011.0 |
| 20260505000510 | 78 | 239 | 3.0 | 7.0 | 0.00 | 0.00 | 0.00 | 66 | 1011.0 |
| 20260505000014 | 78 | 243 | 1.0 | 5.0 | 0.00 | 0.00 | 0.00 | 66 | 1011.1 |
| 20260504235504 | 78 | 220 | 2.0 | 7.0 | 0.00 | 0.00 | 0.00 | 66 | 1011.2 |
| 20260504235007 | 78 | 136 | 2.0 | 7.0 | 0.00 | 0.00 | 0.00 | 66 | 1011.3 |
| 20260504234518 | 78 | 252 | 2.0 | 7.0 | 0.00 | 0.00 | 0.00 | 65 | 1011.3 |
| 20260504234007 | 78 | 136 | 2.0 | 8.0 | 0.00 | 0.00 | 0.00 | 66 | 1011.4 |
| 20260504233510 | 78 | 151 | 2.0 | 8.0 | 0.00 | 0.00 | 0.00 | 66 | 1011.5 |
| 20260504233022 | 78 | 172 | 2.0 | 7.0 | 0.00 | 0.00 | 0.00 | 67 | 1011.5 |
| 20260504232509 | 77 | 273 | 3.0 | 7.0 | 0.00 | 0.00 | 0.00 | 67 | 1011.5 |
| 20260504232011 | 77 | 210 | 0.0 | 6.0 | 0.00 | 0.00 | 0.00 | 67 | 1011.5 |
| 20260504231523 | 77 | 311 | 3.0 | 9.0 | 0.00 | 0.00 | 0.00 | 66 | 1011.6 |
| 20260504231003 | 78 | 225 | 2.0 | 9.0 | 0.00 | 0.00 | 0.00 | 67 | 1011.6 |
| 20260504230505 | 78 | 179 | 2.0 | 9.0 | 0.00 | 0.00 | 0.00 | 66 | 1011.6 |